Weather History for Osceola, WI

Change the Weather History Date:

Monday, March 4, 2013

  Actual Average (KMSP) Record (KMSP)
Temperature  
Mean Temperature 24 °F 28 °F  
Max Temperature 26 °F 35 °F 61 °F (2000)
Min Temperature 23 °F 20 °F -22 °F (1873)
Degree Days  
Heating Degree Days 40 38  
Month to date heating degree days 153  
Since 1 July heating degree days 5943  
Cooling Degree Days 0 0  
Month to date cooling degree days 0  
Year to date cooling degree days 0  
Moisture  
Dew Point 15 °F    
Average Humidity 65    
Maximum Humidity 86    
Minimum Humidity 36    
Precipitation  
Precipitation 0.00 in 0.05 in 0.80 in (1984)
Month to date precipitation 0.20  
Year to date precipitation 1.87  
Snow  
Snow 0.00 in 0.50 in 9.60 in (1984)
Month to date snowfall 1.7  
Since 1 July snowfall 43.4  
Snow Depth -    
Sea Level Pressure  
Sea Level Pressure 30.03 in    
Wind  
Wind Speed 9 mph (ESE)    
Max Wind Speed 18 mph    
Max Gust Speed 23 mph    
Visibility 8 miles    
Events Snow    
T = Trace of Precipitation, MM = Missing Value Source: NWS Daily Summary

Daily Weather History Graph

Daily Weather History Graph

Search for Another Location

Airport:

Trip Planner

Search our weather history database for the weather conditions in past years. The results will help you decide how hot, cold, wet, or windy it might be!

Date:

Astronomy

Mar. 04, 2013 Rise Set
Actual Time 6:43 AM CST 6:02 PM CST
Civil Twilight 6:13 AM CST 6:31 PM CST
Nautical Twilight 5:39 AM CST 7:06 PM CST
Astronomical Twilight 5:05 AM CST 7:40 PM CST
Moon 1:04 AM CST (3/4) 10:32 AM CST (3/4)
Length of Visible Light 12h 18m
Length of Day
11h 19m
Waning Gibbous, 52% of the Moon is Illuminated
Mar 4
Waning Gibbous
Mar 4
Last Quarter
Mar 11
New
Mar 19
First Quarter
Mar 27
Full

Hourly Weather History & Observations

Time (CST) Temp. Windchill Dew Point Humidity Pressure Visibility Wind Dir Wind Speed Gust Speed Precip Events Conditions
12:15 AM 23.0 °F 15.8 °F 1.4 °F 39% 30.04 in 10.0 mi East 5.8 mph - N/A   Mostly Cloudy
12:55 AM 24.8 °F 15.3 °F 1.4 °F 36% 30.04 in 10.0 mi East 9.2 mph - N/A   Mostly Cloudy
1:15 AM 24.8 °F 16.1 °F 3.2 °F 40% 30.04 in 10.0 mi East 8.1 mph - N/A   Overcast
1:35 AM 24.8 °F 16.9 °F 3.2 °F 40% 30.04 in 10.0 mi East 6.9 mph - N/A   Overcast
1:55 AM 24.8 °F 14.6 °F 5.0 °F 43% 30.04 in 10.0 mi ESE 10.4 mph - N/A   Overcast
2:15 AM 26.6 °F 16.8 °F 3.2 °F 37% 30.03 in 10.0 mi East 10.4 mph - N/A   Overcast
2:35 AM 24.8 °F 16.9 °F 5.0 °F 43% 30.03 in 10.0 mi East 6.9 mph - N/A   Overcast
3:15 AM 24.8 °F 17.9 °F 5.0 °F 43% 30.02 in 10.0 mi East 5.8 mph - N/A   Overcast
3:35 AM 24.8 °F 16.1 °F 5.0 °F 43% 30.02 in 10.0 mi East 8.1 mph - N/A   Overcast
3:55 AM 24.8 °F 16.1 °F 5.0 °F 43% 30.01 in 10.0 mi East 8.1 mph - N/A   Overcast
4:15 AM 24.8 °F 16.9 °F 5.0 °F 43% 30.01 in 10.0 mi East 6.9 mph - N/A   Overcast
4:35 AM 24.8 °F 16.1 °F 6.8 °F 46% 30.01 in 10.0 mi East 8.1 mph - N/A   Overcast
4:55 AM 24.8 °F 15.3 °F 8.6 °F 50% 30.01 in 10.0 mi ESE 9.2 mph - N/A   Overcast
5:15 AM 24.8 °F 14.6 °F 8.6 °F 50% 30.01 in 10.0 mi East 10.4 mph - N/A   Overcast
5:35 AM 24.8 °F 14.6 °F 8.6 °F 50% 30.01 in 10.0 mi East 10.4 mph - N/A   Overcast
5:55 AM 24.8 °F 14.6 °F 8.6 °F 50% 30.01 in 10.0 mi East 10.4 mph - N/A   Overcast
6:15 AM 24.8 °F 12.9 °F 10.4 °F 54% 30.01 in 10.0 mi ESE 13.8 mph - N/A   Overcast
6:35 AM 26.6 °F 16.2 °F 10.4 °F 51% 30.01 in 10.0 mi East 11.5 mph - N/A   Overcast
6:55 AM 26.6 °F 16.8 °F 8.6 °F 47% 30.01 in 10.0 mi East 10.4 mph 16.1 mph N/A   Overcast
7:15 AM 26.6 °F 16.8 °F 8.6 °F 47% 30.01 in 10.0 mi ESE 10.4 mph - N/A   Overcast
7:35 AM 26.6 °F 15.7 °F 8.6 °F 47% 30.01 in 10.0 mi ESE 12.7 mph - N/A   Overcast
7:55 AM 26.6 °F 16.8 °F 8.6 °F 47% 30.02 in 10.0 mi ESE 10.4 mph - N/A   Overcast
8:15 AM 26.6 °F 15.2 °F 10.4 °F 51% 30.02 in 10.0 mi ESE 13.8 mph 20.7 mph N/A   Overcast
8:35 AM 26.6 °F 15.7 °F 10.4 °F 51% 30.02 in 10.0 mi ESE 12.7 mph - N/A   Overcast
8:55 AM 26.6 °F 16.2 °F 10.4 °F 51% 30.02 in 10.0 mi ESE 11.5 mph - N/A   Overcast
9:15 AM 26.6 °F 15.2 °F 10.4 °F 51% 30.03 in 10.0 mi ESE 13.8 mph - N/A   Overcast
9:35 AM 26.6 °F 15.2 °F 10.4 °F 51% 30.03 in 10.0 mi ESE 13.8 mph - N/A   Overcast
9:55 AM 26.6 °F 15.2 °F 10.4 °F 51% 30.03 in 10.0 mi East 13.8 mph - N/A   Overcast
10:15 AM 26.6 °F 15.2 °F 12.2 °F 55% 30.03 in 10.0 mi East 13.8 mph - N/A   Overcast
10:35 AM 26.6 °F 13.4 °F 12.2 °F 55% 30.03 in 10.0 mi East 18.4 mph 23.0 mph N/A   Overcast
10:55 AM 26.6 °F 13.8 °F 12.2 °F 55% 30.03 in 10.0 mi ESE 17.3 mph - N/A   Overcast
11:15 AM 26.6 °F 15.7 °F 12.2 °F 55% 30.03 in 10.0 mi ESE 12.7 mph - N/A   Overcast
11:35 AM 26.6 °F 15.2 °F 14.0 °F 59% 30.03 in 10.0 mi East 13.8 mph - N/A   Overcast
11:55 AM 26.6 °F 14.3 °F 19.4 °F 74% 30.02 in 1.5 mi East 16.1 mph 21.9 mph N/A Snow Light Snow
12:15 PM 26.6 °F 16.2 °F 21.2 °F 80% 30.02 in 1.2 mi East 11.5 mph - N/A Snow Light Snow
12:55 PM 26.6 °F 16.8 °F 21.2 °F 80% 30.00 in 2.0 mi ESE 10.4 mph - N/A Snow Light Snow
1:15 PM 26.6 °F 17.5 °F 21.2 °F 80% 30.01 in 3.0 mi East 9.2 mph - N/A Snow Light Snow
1:35 PM 26.6 °F 16.2 °F 21.2 °F 80% 30.01 in 3.0 mi East 11.5 mph - N/A Snow Light Snow
1:55 PM 26.6 °F 17.5 °F 21.2 °F 80% 30.01 in 1.2 mi East 9.2 mph - N/A Snow Light Snow
2:15 PM 26.6 °F 16.8 °F 23.0 °F 86% 30.00 in 1.0 mi East 10.4 mph - N/A Snow Light Snow
2:35 PM 26.6 °F 16.8 °F 21.2 °F 80% 30.00 in 5.0 mi East 10.4 mph - N/A Snow Light Snow
2:55 PM 26.6 °F 16.2 °F 21.2 °F 80% 30.00 in 7.0 mi East 11.5 mph - N/A   Overcast
3:35 PM 26.6 °F 17.5 °F 21.2 °F 80% 30.01 in 4.0 mi East 9.2 mph - N/A Snow Light Snow
3:55 PM 26.6 °F 18.2 °F 21.2 °F 80% 30.01 in 3.0 mi East 8.1 mph - N/A Snow Light Snow
4:15 PM 26.6 °F 19.1 °F 21.2 °F 80% 30.02 in 5.0 mi East 6.9 mph - N/A Snow Light Snow
4:35 PM 26.6 °F 16.2 °F 21.2 °F 80% 30.02 in 10.0 mi East 11.5 mph - N/A   Overcast
4:55 PM 26.6 °F 18.2 °F 21.2 °F 80% 30.03 in 10.0 mi East 8.1 mph - N/A   Overcast
5:15 PM 26.6 °F 16.8 °F 21.2 °F 80% 30.02 in 10.0 mi ESE 10.4 mph - N/A   Overcast
5:35 PM 26.6 °F 17.5 °F 21.2 °F 80% 30.02 in 10.0 mi ESE 9.2 mph - N/A   Overcast
5:55 PM 26.6 °F 18.2 °F 21.2 °F 80% 30.02 in 7.0 mi East 8.1 mph - N/A Snow Light Snow
6:15 PM 26.6 °F 18.2 °F 21.2 °F 80% 30.02 in 7.0 mi East 8.1 mph - N/A Snow Light Snow
6:35 PM 26.6 °F 19.1 °F 21.2 °F 80% 30.02 in 10.0 mi East 6.9 mph - N/A   Overcast
6:55 PM 26.6 °F 19.1 °F 21.2 °F 80% 30.03 in 10.0 mi East 6.9 mph - N/A Snow Light Snow
7:15 PM 26.6 °F 17.5 °F 21.2 °F 80% 30.03 in 10.0 mi East 9.2 mph - N/A Snow Light Snow
7:35 PM 26.6 °F 19.1 °F 21.2 °F 80% 30.04 in 10.0 mi ESE 6.9 mph - N/A Snow Light Snow
7:55 PM 26.6 °F 17.5 °F 21.2 °F 80% 30.03 in 7.0 mi East 9.2 mph - N/A Snow Light Snow
8:35 PM 26.6 °F 19.1 °F 21.2 °F 80% 30.06 in 10.0 mi ESE 6.9 mph - N/A   Overcast
8:55 PM 26.6 °F 20.0 °F 21.2 °F 80% 30.07 in 7.0 mi ESE 5.8 mph - N/A Snow Light Snow
9:15 PM 26.6 °F 20.0 °F 23.0 °F 86% 30.07 in 4.0 mi ESE 5.8 mph - N/A Snow Light Snow
9:35 PM 26.6 °F 22.6 °F 23.0 °F 86% 30.07 in 2.5 mi East 3.5 mph - N/A Snow Light Snow
9:55 PM 26.6 °F 21.2 °F 23.0 °F 86% 30.07 in 3.0 mi East 4.6 mph - N/A Snow Light Snow
10:15 PM 26.6 °F 20.0 °F 23.0 °F 86% 30.08 in 2.0 mi East 5.8 mph - N/A Snow Light Snow
10:35 PM 26.6 °F 21.2 °F 23.0 °F 86% 30.07 in 5.0 mi East 4.6 mph - N/A Snow Light Snow
10:55 PM 26.6 °F 19.1 °F 23.0 °F 86% 30.07 in 2.5 mi East 6.9 mph - N/A Snow Light Snow
11:35 PM 26.6 °F 18.2 °F 23.0 °F 86% 30.06 in 2.5 mi East 8.1 mph - N/A Snow Light Snow
11:55 PM 26.6 °F 18.2 °F 23.0 °F 86% 30.06 in 1.2 mi East 8.1 mph - N/A Snow Light Snow